Weather History for KFOE - February, 2014

Change the Weather History Date:

Sunday, February 2, 2014

  Actual Average Record
Temperature  
Mean Temperature 16 °F -  
Max Temperature 24 °F 36 °F 70 °F (1992)
Min Temperature 6 °F 17 °F -10 °F (1951)
Degree Days  
Heating Degree Days 50    
Moisture  
Dew Point 3 °F    
Average Humidity 61    
Maximum Humidity 77    
Minimum Humidity 44    
Precipitation  
Precipitation 0.00 in - - ()
Sea Level Pressure  
Sea Level Pressure 30.37 in    
Wind  
Wind Speed 8 mph (NNE)    
Max Wind Speed 14 mph    
Max Gust Speed 25 mph    
Visibility 10 miles    
Events      
Averages and records for this station are not official NWS values.
T = Trace of Precipitation, MM = Missing Value Source: NWS Daily Summary

Daily Weather History Graph

Daily Weather History Graph

Search for Another Location

Airport or City:

Trip Planner

Search our weather history database for the weather conditions in past years. The results will help you decide how hot, cold, wet, or windy it might be!

Date:

Astronomy

Feb. 02, 2014 Rise Set
Actual Time 7:28 AM CST 5:45 PM CST
Civil Twilight 6:59 AM CST 6:13 PM CST
Nautical Twilight 6:28 AM CST 6:45 PM CST
Astronomical Twilight 5:56 AM CST 7:16 PM CST
Moon 8:57 AM CST (2/2) 9:27 PM CST (2/2)
Length of Visible Light 11h 13m
Length of Day
10h 17m
Waxing Crescent, 11% of the Moon is Illuminated
Feb 2
Waxing Crescent
Feb 6
First Quarter
Feb 14
Full
Feb 22
Last Quarter
Mar 1
New

Hourly Weather History & Observations

Time (CST) Temp. Windchill Dew Point Humidity Pressure Visibility Wind Dir Wind Speed Gust Speed Precip Events Conditions
12:53 AM 19.0 °F 8.2 °F 10.0 °F 68% 30.30 in 10.0 mi North 9.2 mph - N/A   Clear
1:53 AM 18.0 °F 4.2 °F 6.1 °F 60% 30.31 in 10.0 mi North 13.8 mph 25.3 mph N/A   Clear
2:53 AM 16.0 °F 3.6 °F 5.0 °F 62% 30.35 in 10.0 mi North 10.4 mph - N/A   Clear
3:53 AM 15.1 °F 0.5 °F 3.9 °F 61% 30.34 in 10.0 mi North 13.8 mph - N/A   Clear
4:53 AM 12.9 °F -0.9 °F 1.9 °F 62% 30.36 in 10.0 mi North 11.5 mph - N/A   Clear
5:53 AM 12.0 °F -2.7 °F 1.0 °F 61% 30.38 in 10.0 mi North 12.7 mph - N/A   Clear
6:53 AM 10.0 °F -3.7 °F 1.0 °F 67% 30.39 in 10.0 mi North 10.4 mph - N/A   Clear
7:53 AM 10.0 °F -3.7 °F 1.0 °F 67% 30.41 in 10.0 mi North 10.4 mph - N/A   Clear
8:53 AM 12.0 °F 1.5 °F 1.9 °F 64% 30.41 in 10.0 mi NNE 6.9 mph - N/A   Clear
9:53 AM 12.9 °F 1.6 °F 1.9 °F 62% 30.42 in 10.0 mi NNE 8.1 mph - N/A   Clear
10:53 AM 16.0 °F 6.3 °F 1.9 °F 54% 30.45 in 10.0 mi NNE 6.9 mph - N/A   Clear
11:53 AM 17.1 °F 7.6 °F 3.0 °F 54% 30.42 in 10.0 mi Variable 6.9 mph - N/A   Clear
12:53 PM 19.9 °F 12.1 °F 3.9 °F 50% 30.41 in 10.0 mi NNE 5.8 mph - N/A   Clear
1:53 PM 21.0 °F - 5.0 °F 50% 30.39 in 10.0 mi Calm Calm - N/A   Clear
2:53 PM 24.1 °F 17.0 °F 5.0 °F 44% 30.37 in 10.0 mi North 5.8 mph - N/A   Clear
3:53 PM 24.1 °F 14.4 °F 5.0 °F 44% 30.37 in 10.0 mi North 9.2 mph - N/A   Clear
4:53 PM 24.1 °F 17.0 °F 6.1 °F 46% 30.37 in 10.0 mi NNE 5.8 mph - N/A   Clear
5:53 PM 19.9 °F 13.4 °F 5.0 °F 52% 30.36 in 10.0 mi North 4.6 mph - N/A   Clear
6:53 PM 15.1 °F 9.4 °F 5.0 °F 64% 30.37 in 10.0 mi NNW 3.5 mph - N/A   Clear
7:53 PM 12.0 °F - 3.9 °F 70% 30.37 in 10.0 mi Calm Calm - N/A   Clear
8:53 PM 10.0 °F - 1.9 °F 70% 30.37 in 10.0 mi Calm Calm - N/A   Clear
9:53 PM 8.1 °F - 1.9 °F 76% 30.36 in 10.0 mi Calm Calm - N/A   Clear
10:53 PM 7.0 °F 0.1 °F 1.0 °F 77% 30.36 in 10.0 mi SSE 3.5 mph - N/A   Clear
11:53 PM 6.1 °F - -0.0 °F 76% 30.35 in 10.0 mi Calm Calm - N/A   Clear